EZY1014 GMMX-LFBO

Flight info

Callsign EZY1014
Flight time 2h 6m
Altitude 36000
Route OBOGA UG850 VALBA UZ801 TOLSI UG5 KORIS L27 VJF N871 RONNY/N0395F280 N871 TOPTU
Aircraft A320/M-SDE3FGHIRWY/LB1

Departure

Time 2026-05-05 05:55
Airport Marrakesh Menara Airport (GMMX)

Arrival

Time 2026-05-05 08:02
Airport Toulouse-Blagnac Airport (LFBO)
Time Latitude Longitude Altitude Speed Heading
2026-05-05 05:49 31.60185 -8.02301 1540 ft 0 kts 274°
2026-05-05 05:50 31.60184 -8.02281 1540 ft 4 kts 277°
2026-05-05 05:50 31.60179 -8.02250 1534 ft 4 kts 287°
2026-05-05 05:51 31.60169 -8.02223 1536 ft 4 kts 319°
2026-05-05 05:51 31.60154 -8.02214 1538 ft 0 kts
2026-05-05 05:52 31.60155 -8.02214 1541 ft 1 kts
2026-05-05 05:53 31.60173 -8.02212 1541 ft 4 kts
2026-05-05 05:53 31.60217 -8.02207 1545 ft 9 kts
2026-05-05 05:53 31.60288 -8.02197 1541 ft 10 kts
2026-05-05 05:53 31.60349 -8.02188 1541 ft 8 kts 12°
2026-05-05 05:54 31.60407 -8.02171 1538 ft 12 kts 11°
2026-05-05 05:54 31.60510 -8.02156 1540 ft 16 kts
2026-05-05 05:54 31.60566 -8.02245 1539 ft 16 kts 276°
2026-05-05 05:54 31.60587 -8.02483 1529 ft 59 kts 276°
2026-05-05 05:55 31.60654 -8.03240 1524 ft 125 kts 276°
2026-05-05 05:55 31.60759 -8.04460 1562 ft 170 kts 275°
2026-05-05 05:55 31.60859 -8.05822 2255 ft 168 kts 275°
2026-05-05 05:55 31.60964 -8.07200 2894 ft 176 kts 275°
2026-05-05 05:56 31.61090 -8.08719 3167 ft 198 kts 276°
2026-05-05 05:56 31.61250 -8.10419 3417 ft 222 kts 276°
2026-05-05 05:56 31.61431 -8.12306 3886 ft 239 kts 277°
2026-05-05 05:56 31.61618 -8.14266 4661 ft 245 kts 277°
2026-05-05 05:57 31.61897 -8.16251 5434 ft 249 kts 289°
2026-05-05 05:57 31.62717 -8.18050 6219 ft 253 kts 310°
2026-05-05 05:57 31.64064 -8.19389 7018 ft 257 kts 332°
2026-05-05 05:57 31.65764 -8.20057 7816 ft 261 kts 353°
2026-05-05 05:58 31.67579 -8.19926 8600 ft 265 kts 16°
2026-05-05 05:58 31.69237 -8.18969 9361 ft 269 kts 38°
2026-05-05 05:58 31.70468 -8.17307 10081 ft 274 kts 62°
2026-05-05 05:58 31.71064 -8.15175 10780 ft 279 kts 81°
2026-05-05 05:59 31.71351 -8.12907 11483 ft 283 kts 82°
2026-05-05 05:59 31.71643 -8.10601 12184 ft 287 kts 82°
2026-05-05 05:59 31.71940 -8.08262 12864 ft 292 kts 81°
2026-05-05 05:59 31.72242 -8.05891 13540 ft 296 kts 82°
2026-05-05 06:00 31.72547 -8.03485 14208 ft 300 kts 82°
2026-05-05 06:00 31.72859 -8.01048 14851 ft 304 kts 81°
2026-05-05 06:00 31.73174 -7.98612 15477 ft 307 kts 80°
2026-05-05 06:00 31.73766 -7.96191 16085 ft 311 kts 65°
2026-05-05 06:01 31.74892 -7.93964 16369 ft 327 kts 50°
2026-05-05 06:01 31.76396 -7.91848 16493 ft 348 kts 49°
2026-05-05 06:01 31.77995 -7.89612 16623 ft 367 kts 49°
2026-05-05 06:01 31.79675 -7.87253 16816 ft 383 kts 49°
2026-05-05 06:02 31.81399 -7.84817 17282 ft 390 kts 49°
2026-05-05 06:02 31.83142 -7.82349 17830 ft 394 kts 49°
2026-05-05 06:02 31.84920 -7.79869 18368 ft 398 kts 47°
2026-05-05 06:02 31.86762 -7.77419 18906 ft 401 kts 46°
2026-05-05 06:03 31.88655 -7.74983 19442 ft 405 kts 46°
2026-05-05 06:03 31.90577 -7.72545 19978 ft 408 kts 46°
2026-05-05 06:03 31.92512 -7.70088 20488 ft 411 kts 46°
2026-05-05 06:03 31.94461 -7.67598 20983 ft 414 kts 46°
2026-05-05 06:04 31.96409 -7.65089 21467 ft 417 kts 46°
2026-05-05 06:04 31.98366 -7.62554 21935 ft 420 kts 46°
2026-05-05 06:04 32.00311 -7.60031 22384 ft 422 kts 47°
2026-05-05 06:04 32.02289 -7.57458 22832 ft 425 kts 47°
2026-05-05 06:05 32.04350 -7.54948 23258 ft 427 kts 40°
2026-05-05 06:05 32.06738 -7.52863 23682 ft 428 kts 29°
2026-05-05 06:05 32.09401 -7.51311 24094 ft 428 kts 19°
2026-05-05 06:05 32.12262 -7.50339 24471 ft 428 kts
2026-05-05 06:06 32.15220 -7.49982 24839 ft 428 kts 358°
2026-05-05 06:06 32.18205 -7.50006 25214 ft 430 kts 357°
2026-05-05 06:06 32.21208 -7.50035 25584 ft 433 kts 357°
2026-05-05 06:06 32.24231 -7.50061 25940 ft 435 kts 357°
2026-05-05 06:07 32.27272 -7.50083 26292 ft 438 kts 357°
2026-05-05 06:07 32.30328 -7.50099 26647 ft 440 kts 357°
2026-05-05 06:07 32.33400 -7.50112 26993 ft 443 kts 357°
2026-05-05 06:07 32.36485 -7.50125 27329 ft 445 kts 356°
2026-05-05 06:08 32.39587 -7.50141 27655 ft 447 kts 356°
2026-05-05 06:08 32.42711 -7.50159 27983 ft 450 kts 356°
2026-05-05 06:08 32.45809 -7.50179 28310 ft 452 kts 356°
2026-05-05 06:08 32.48999 -7.50203 28629 ft 454 kts 356°
2026-05-05 06:09 32.52120 -7.50223 28935 ft 455 kts 356°
2026-05-05 06:09 32.55295 -7.50244 29228 ft 457 kts 356°
2026-05-05 06:09 32.58484 -7.50264 29507 ft 459 kts 356°
2026-05-05 06:09 32.61688 -7.50285 29784 ft 461 kts 356°
2026-05-05 06:10 32.64899 -7.50309 30049 ft 463 kts 356°
2026-05-05 06:10 32.68126 -7.50344 30311 ft 465 kts 356°
2026-05-05 06:10 32.71367 -7.50377 30577 ft 466 kts 356°
2026-05-05 06:10 32.74616 -7.50404 30838 ft 468 kts 356°
2026-05-05 06:11 32.77880 -7.50426 31091 ft 470 kts 356°
2026-05-05 06:11 32.80044 -7.50438 31304 ft 469 kts 356°
2026-05-05 06:11 32.83305 -7.50453 31648 ft 468 kts 356°
2026-05-05 06:11 32.86560 -7.50463 31999 ft 467 kts 356°
2026-05-05 06:12 32.89810 -7.50475 32322 ft 467 kts 356°
2026-05-05 06:12 32.93054 -7.50492 32648 ft 466 kts 356°
2026-05-05 06:12 32.96293 -7.50513 32975 ft 465 kts 356°
2026-05-05 06:12 32.99528 -7.50536 33293 ft 464 kts 356°
2026-05-05 06:13 33.02760 -7.50557 33606 ft 464 kts 356°
2026-05-05 06:13 33.05984 -7.50576 33919 ft 463 kts 356°
2026-05-05 06:13 33.09204 -7.50585 34228 ft 463 kts 358°
2026-05-05 06:13 33.12419 -7.50222 34520 ft 467 kts
2026-05-05 06:14 33.15585 -7.49313 34805 ft 469 kts 12°
2026-05-05 06:14 33.18734 -7.48284 35087 ft 468 kts 12°
2026-05-05 06:14 33.21874 -7.47257 35348 ft 468 kts 12°
2026-05-05 06:14 33.25014 -7.46230 35606 ft 468 kts 12°
2026-05-05 06:15 33.28154 -7.45207 35844 ft 467 kts 12°
2026-05-05 06:15 33.31292 -7.44189 36031 ft 467 kts 12°
2026-05-05 06:15 33.37540 -7.42154 36081 ft 464 kts 12°
2026-05-05 06:16 33.43759 -7.40120 36082 ft 463 kts 12°
2026-05-05 06:16 33.49969 -7.38078 36072 ft 463 kts 12°
2026-05-05 06:17 33.56135 -7.36048 36073 ft 462 kts 12°
2026-05-05 06:17 33.62332 -7.34018 36063 ft 461 kts 12°
2026-05-05 06:18 33.68527 -7.31990 36064 ft 461 kts 12°
2026-05-05 06:18 33.74722 -7.29957 36061 ft 461 kts 12°
2026-05-05 06:19 33.80907 -7.27906 36059 ft 461 kts 12°
2026-05-05 06:19 33.87097 -7.25853 36061 ft 461 kts 12°
2026-05-05 06:20 33.93289 -7.23799 36068 ft 462 kts 12°
2026-05-05 06:20 33.99485 -7.21753 36066 ft 461 kts 12°
2026-05-05 06:21 34.05682 -7.19702 36080 ft 461 kts 12°
2026-05-05 06:21 34.11867 -7.17641 36075 ft 460 kts 12°
2026-05-05 06:22 34.18034 -7.15583 36075 ft 460 kts 12°
2026-05-05 06:22 34.24158 -7.13542 36072 ft 460 kts 12°
2026-05-05 06:23 34.30325 -7.11479 36070 ft 460 kts 12°
2026-05-05 06:23 34.36492 -7.09416 36072 ft 460 kts 12°
2026-05-05 06:24 34.42653 -7.07355 36071 ft 459 kts 12°
2026-05-05 06:24 34.48808 -7.05293 36067 ft 459 kts 12°
2026-05-05 06:25 34.54956 -7.03217 36067 ft 458 kts 12°
2026-05-05 06:25 34.61045 -7.00871 36059 ft 462 kts 21°
2026-05-05 06:26 34.66812 -6.97378 36064 ft 463 kts 24°
2026-05-05 06:26 34.72559 -6.93849 36052 ft 463 kts 24°
2026-05-05 06:27 34.81197 -6.88551 36060 ft 464 kts 24°
2026-05-05 06:28 34.86922 -6.85022 36062 ft 464 kts 24°
2026-05-05 06:28 34.92676 -6.81463 36055 ft 463 kts 24°
2026-05-05 06:29 34.98428 -6.77914 36062 ft 463 kts 24°
2026-05-05 06:29 35.04181 -6.74371 36059 ft 463 kts 24°
2026-05-05 06:30 35.09927 -6.70815 36058 ft 463 kts 24°
2026-05-05 06:30 35.15676 -6.67246 36055 ft 463 kts 24°
2026-05-05 06:31 35.21418 -6.63670 36054 ft 464 kts 24°
2026-05-05 06:31 35.27171 -6.60084 36061 ft 463 kts 24°
2026-05-05 06:32 35.32891 -6.56525 36062 ft 464 kts 24°
2026-05-05 06:32 35.38645 -6.52943 36065 ft 464 kts 24°
2026-05-05 06:33 35.44402 -6.49346 36069 ft 464 kts 24°
2026-05-05 06:33 35.50129 -6.45676 36073 ft 464 kts 25°
2026-05-05 06:34 35.55820 -6.41931 36069 ft 464 kts 25°
2026-05-05 06:34 35.61510 -6.38179 36065 ft 464 kts 25°
2026-05-05 06:35 35.67206 -6.34445 36065 ft 464 kts 25°
2026-05-05 06:35 35.72907 -6.30715 36061 ft 464 kts 25°
2026-05-05 06:36 35.78611 -6.26990 36062 ft 464 kts 25°
2026-05-05 06:36 35.84317 -6.23275 36060 ft 464 kts 24°
2026-05-05 06:37 35.90027 -6.19582 36058 ft 463 kts 24°
2026-05-05 06:37 35.95749 -6.15903 36058 ft 464 kts 24°
2026-05-05 06:38 36.01428 -6.12236 36058 ft 463 kts 24°
2026-05-05 06:38 36.07132 -6.08519 36058 ft 463 kts 25°
2026-05-05 06:39 36.12831 -6.04799 36060 ft 464 kts 24°
2026-05-05 06:39 36.18531 -6.01079 36056 ft 463 kts 24°
2026-05-05 06:40 36.24095 -5.97020 36056 ft 467 kts 36°
2026-05-05 06:40 36.28812 -5.91446 36044 ft 470 kts 43°
2026-05-05 06:41 36.33409 -5.85688 36052 ft 470 kts 43°
2026-05-05 06:41 36.38007 -5.79933 36032 ft 470 kts 43°
2026-05-05 06:42 36.42570 -5.74205 36033 ft 470 kts 43°
2026-05-05 06:42 36.47162 -5.68432 36032 ft 470 kts 43°
2026-05-05 06:43 36.51748 -5.62629 36031 ft 471 kts 43°
2026-05-05 06:43 36.56335 -5.56828 36028 ft 471 kts 43°
2026-05-05 06:44 36.60930 -5.51014 36030 ft 471 kts 43°
2026-05-05 06:44 36.65526 -5.45190 36032 ft 471 kts 43°
2026-05-05 06:45 36.70119 -5.39354 36030 ft 472 kts 43°
2026-05-05 06:45 36.74710 -5.33508 36035 ft 471 kts 43°
2026-05-05 06:46 36.79292 -5.27662 36035 ft 472 kts 43°
2026-05-05 06:46 36.83850 -5.21839 36032 ft 472 kts 43°
2026-05-05 06:47 36.88446 -5.15967 36035 ft 472 kts 43°
2026-05-05 06:47 36.93034 -5.10081 36032 ft 472 kts 43°
2026-05-05 06:48 36.97610 -5.04204 36033 ft 472 kts 43°
2026-05-05 06:48 37.02185 -4.98311 36030 ft 472 kts 43°
2026-05-05 06:49 37.07289 -4.93289 36030 ft 464 kts 25°
2026-05-05 06:49 37.13139 -4.90042 36027 ft 460 kts 18°
2026-05-05 06:50 37.19059 -4.86965 36027 ft 461 kts 19°
2026-05-05 06:50 37.24986 -4.83853 36031 ft 461 kts 19°
2026-05-05 06:51 37.30874 -4.80769 36047 ft 462 kts 19°
2026-05-05 06:51 37.36810 -4.77660 36047 ft 462 kts 19°
2026-05-05 06:52 37.42747 -4.74546 36048 ft 463 kts 19°
2026-05-05 06:52 37.48676 -4.71425 36052 ft 462 kts 19°
2026-05-05 06:53 37.54611 -4.68294 36053 ft 462 kts 19°
2026-05-05 06:53 37.60541 -4.65167 36049 ft 462 kts 19°
2026-05-05 06:54 37.66472 -4.62026 36055 ft 462 kts 19°
2026-05-05 06:54 37.72401 -4.58880 36050 ft 462 kts 19°
2026-05-05 06:55 37.78337 -4.55739 36049 ft 463 kts 19°
2026-05-05 06:55 37.84276 -4.52591 36055 ft 463 kts 19°
2026-05-05 06:56 37.90218 -4.49433 36058 ft 463 kts 19°
2026-05-05 06:56 37.96120 -4.46286 36056 ft 463 kts 19°
2026-05-05 06:57 38.02054 -4.43107 36056 ft 463 kts 19°
2026-05-05 06:57 38.07991 -4.39927 36055 ft 463 kts 19°
2026-05-05 06:58 38.13928 -4.36748 36056 ft 463 kts 19°
2026-05-05 06:58 38.19871 -4.33563 36055 ft 463 kts 19°
2026-05-05 06:59 38.25804 -4.30365 36052 ft 463 kts 19°
2026-05-05 06:59 38.31734 -4.27170 36051 ft 463 kts 19°
2026-05-05 07:00 38.37662 -4.23972 36046 ft 463 kts 19°
2026-05-05 07:00 38.43586 -4.20760 36049 ft 462 kts 19°
2026-05-05 07:01 38.49507 -4.17543 36044 ft 463 kts 19°
2026-05-05 07:01 38.55431 -4.14329 36045 ft 462 kts 19°
2026-05-05 07:02 38.60353 -4.11664 36038 ft 462 kts 19°
2026-05-05 07:02 38.66271 -4.08439 36034 ft 462 kts 19°
2026-05-05 07:03 38.72191 -4.05199 36032 ft 463 kts 19°
2026-05-05 07:03 38.78112 -4.01957 36032 ft 463 kts 19°
2026-05-05 07:04 38.84039 -3.98718 36031 ft 463 kts 19°
2026-05-05 07:04 38.89966 -3.95471 36030 ft 464 kts 19°
2026-05-05 07:05 38.95900 -3.92211 36026 ft 464 kts 19°
2026-05-05 07:05 39.01836 -3.88940 36024 ft 464 kts 19°
2026-05-05 07:06 39.07773 -3.85661 36023 ft 465 kts 19°
2026-05-05 07:06 39.13676 -3.82399 36019 ft 465 kts 19°
2026-05-05 07:07 39.19660 -3.79093 36018 ft 465 kts 19°
2026-05-05 07:07 39.25582 -3.75818 36019 ft 466 kts 19°
2026-05-05 07:08 39.31544 -3.72500 36016 ft 467 kts 19°
2026-05-05 07:08 39.37499 -3.69173 36012 ft 466 kts 19°
2026-05-05 07:09 39.43456 -3.65860 36006 ft 466 kts 19°
2026-05-05 07:09 39.49409 -3.62540 36000 ft 466 kts 19°
2026-05-05 07:10 39.55370 -3.59197 35999 ft 467 kts 19°
2026-05-05 07:10 39.61333 -3.55844 35999 ft 467 kts 19°
2026-05-05 07:11 39.67299 -3.52489 36000 ft 467 kts 19°
2026-05-05 07:11 39.73261 -3.49133 36000 ft 467 kts 19°
2026-05-05 07:12 39.79132 -3.45503 36000 ft 471 kts 28°
2026-05-05 07:12 39.84625 -3.40807 35999 ft 473 kts 30°
2026-05-05 07:13 39.90115 -3.36090 36003 ft 473 kts 30°
2026-05-05 07:13 39.95575 -3.31396 36006 ft 473 kts 30°
2026-05-05 07:14 40.01070 -3.26665 36010 ft 473 kts 30°
2026-05-05 07:14 40.06557 -3.21915 36010 ft 473 kts 30°
2026-05-05 07:15 40.12044 -3.17158 36008 ft 473 kts 30°
2026-05-05 07:15 40.17530 -3.12399 36010 ft 473 kts 30°
2026-05-05 07:16 40.23014 -3.07637 36010 ft 473 kts 30°
2026-05-05 07:16 40.28499 -3.02868 36008 ft 473 kts 30°
2026-05-05 07:17 40.33980 -2.98093 36004 ft 473 kts 30°
2026-05-05 07:17 40.39453 -2.93297 36001 ft 473 kts 31°
2026-05-05 07:18 40.44926 -2.88496 36000 ft 473 kts 31°
2026-05-05 07:18 40.50395 -2.83697 36000 ft 473 kts 31°
2026-05-05 07:19 40.55860 -2.78890 36001 ft 473 kts 31°
2026-05-05 07:19 40.61323 -2.74067 35998 ft 473 kts 31°
2026-05-05 07:20 40.66744 -2.69277 35994 ft 472 kts 31°
2026-05-05 07:20 40.72206 -2.64448 35992 ft 473 kts 31°
2026-05-05 07:21 40.77667 -2.59605 35993 ft 473 kts 31°
2026-05-05 07:21 40.83122 -2.54753 35993 ft 473 kts 31°
2026-05-05 07:22 40.88587 -2.49881 35993 ft 473 kts 31°
2026-05-05 07:22 40.94052 -2.45008 35997 ft 473 kts 31°
2026-05-05 07:23 40.99507 -2.40125 36004 ft 474 kts 31°
2026-05-05 07:23 41.04901 -2.35116 35998 ft 474 kts 35°
2026-05-05 07:24 41.10037 -2.29685 36000 ft 475 kts 37°
2026-05-05 07:24 41.15114 -2.24065 35999 ft 475 kts 37°
2026-05-05 07:25 41.20231 -2.18524 36001 ft 474 kts 37°
2026-05-05 07:25 41.25385 -2.13049 35999 ft 474 kts 37°
2026-05-05 07:26 41.30538 -2.07579 36000 ft 474 kts 37°
2026-05-05 07:26 41.35683 -2.02083 35999 ft 474 kts 37°
2026-05-05 07:27 41.40812 -1.96565 35997 ft 474 kts 37°
2026-05-05 07:27 41.45935 -1.91043 35997 ft 474 kts 37°
2026-05-05 07:28 41.51064 -1.85520 35989 ft 473 kts 37°
2026-05-05 07:28 41.56148 -1.80029 35993 ft 473 kts 37°
2026-05-05 07:29 41.61261 -1.74495 35990 ft 473 kts 37°
2026-05-05 07:29 41.66379 -1.68944 35991 ft 473 kts 37°
2026-05-05 07:30 41.71493 -1.63384 35994 ft 473 kts 38°
2026-05-05 07:30 41.79155 -1.55031 35993 ft 473 kts 38°
2026-05-05 07:31 41.84259 -1.49452 35995 ft 473 kts 38°
2026-05-05 07:31 41.89327 -1.43905 35985 ft 473 kts 38°
2026-05-05 07:32 41.94415 -1.38317 35986 ft 473 kts 38°
2026-05-05 07:32 41.99506 -1.32707 35983 ft 473 kts 38°
2026-05-05 07:33 42.04592 -1.27102 35984 ft 473 kts 38°
2026-05-05 07:33 42.09680 -1.21497 35991 ft 472 kts 38°
2026-05-05 07:34 42.14755 -1.15877 35996 ft 472 kts 38°
2026-05-05 07:34 42.19821 -1.10254 35988 ft 472 kts 38°
2026-05-05 07:35 42.24884 -1.04631 35984 ft 471 kts 38°
2026-05-05 07:35 42.29940 -0.98987 35984 ft 471 kts 38°
2026-05-05 07:36 42.34994 -0.93349 35987 ft 471 kts 38°
2026-05-05 07:36 42.40045 -0.87703 35991 ft 471 kts 38°
2026-05-05 07:37 42.44678 -0.81472 35644 ft 470 kts 52°
2026-05-05 07:37 42.46673 -0.77950 34919 ft 471 kts 52°
2026-05-05 07:37 42.48668 -0.74416 34215 ft 472 kts 52°
2026-05-05 07:38 42.50654 -0.70903 33705 ft 468 kts 52°
2026-05-05 07:38 42.52597 -0.67465 33211 ft 463 kts 52°
2026-05-05 07:38 42.54552 -0.64012 32699 ft 459 kts 52°
2026-05-05 07:38 42.56488 -0.60597 32197 ft 455 kts 52°
2026-05-05 07:39 42.58410 -0.57207 31719 ft 451 kts 52°
2026-05-05 07:39 42.60311 -0.53850 31238 ft 447 kts 52°
2026-05-05 07:39 42.62196 -0.50512 30751 ft 443 kts 52°
2026-05-05 07:39 42.64060 -0.47203 30250 ft 440 kts 53°
2026-05-05 07:40 42.65911 -0.43919 29792 ft 436 kts 53°
2026-05-05 07:40 42.67745 -0.40658 29316 ft 432 kts 53°
2026-05-05 07:40 42.69561 -0.37425 28839 ft 428 kts 53°
2026-05-05 07:40 42.71361 -0.34216 28349 ft 425 kts 53°
2026-05-05 07:41 42.73145 -0.31034 28031 ft 421 kts 53°
2026-05-05 07:41 42.74919 -0.27861 27980 ft 421 kts 53°
2026-05-05 07:41 42.76689 -0.24688 27999 ft 421 kts 53°
2026-05-05 07:41 42.78462 -0.21508 27998 ft 422 kts 53°
2026-05-05 07:42 42.80237 -0.18331 27994 ft 421 kts 53°
2026-05-05 07:42 42.81985 -0.15192 27996 ft 421 kts 53°
2026-05-05 07:42 42.83750 -0.12007 27997 ft 421 kts 53°
2026-05-05 07:42 42.85510 -0.08819 28001 ft 421 kts 53°
2026-05-05 07:43 42.87271 -0.05629 27998 ft 421 kts 53°
2026-05-05 07:43 42.89030 -0.02439 27821 ft 420 kts 53°
2026-05-05 07:43 42.90778 0.00738 27328 ft 417 kts 53°
2026-05-05 07:43 42.92506 0.03883 26889 ft 412 kts 53°
2026-05-05 07:44 42.94217 0.07000 26432 ft 408 kts 53°
2026-05-05 07:44 42.95908 0.10085 25992 ft 403 kts 53°
2026-05-05 07:44 42.97579 0.13136 25565 ft 399 kts 53°
2026-05-05 07:44 42.99234 0.16152 25126 ft 395 kts 53°
2026-05-05 07:45 43.00872 0.19139 24685 ft 391 kts 53°
2026-05-05 07:45 43.02496 0.22103 24241 ft 387 kts 54°
2026-05-05 07:45 43.04102 0.25037 23796 ft 384 kts 54°
2026-05-05 07:45 43.05696 0.27949 23352 ft 381 kts 54°
2026-05-05 07:46 43.07257 0.30805 22892 ft 378 kts 54°
2026-05-05 07:46 43.08845 0.33721 22453 ft 376 kts 54°
2026-05-05 07:46 43.10382 0.36552 22013 ft 375 kts 54°
2026-05-05 07:46 43.11927 0.39405 21568 ft 373 kts 54°
2026-05-05 07:47 43.13468 0.42251 21118 ft 371 kts 54°
2026-05-05 07:47 43.15000 0.45083 20677 ft 369 kts 54°
2026-05-05 07:47 43.16524 0.47899 20239 ft 367 kts 54°
2026-05-05 07:47 43.18043 0.50701 19794 ft 365 kts 54°
2026-05-05 07:48 43.19559 0.53495 19354 ft 364 kts 54°
2026-05-05 07:48 43.21067 0.56277 18924 ft 362 kts 54°
2026-05-05 07:48 43.22564 0.59041 18497 ft 360 kts 54°
2026-05-05 07:48 43.24048 0.61787 18065 ft 358 kts 54°
2026-05-05 07:49 43.25522 0.64522 17633 ft 356 kts 54°
2026-05-05 07:49 43.26988 0.67250 17213 ft 354 kts 54°
2026-05-05 07:49 43.28445 0.69966 16804 ft 352 kts 54°
2026-05-05 07:49 43.29742 0.72801 16392 ft 350 kts 65°
2026-05-05 07:50 43.30578 0.75915 15985 ft 347 kts 77°
2026-05-05 07:50 43.30929 0.79174 15570 ft 345 kts 89°
2026-05-05 07:50 43.30858 0.82447 15158 ft 342 kts 95°
2026-05-05 07:50 43.30732 0.85701 14746 ft 341 kts 94°
2026-05-05 07:51 43.30609 0.88945 14335 ft 340 kts 94°
2026-05-05 07:51 43.30486 0.92178 13922 ft 338 kts 94°
2026-05-05 07:51 43.30366 0.95397 13512 ft 337 kts 94°
2026-05-05 07:51 43.30244 0.98598 13095 ft 336 kts 94°
2026-05-05 07:52 43.30118 1.01753 12686 ft 334 kts 94°
2026-05-05 07:52 43.30032 1.03899 12395 ft 333 kts 94°
2026-05-05 07:52 43.29905 1.07072 11971 ft 332 kts 94°
2026-05-05 07:52 43.29739 1.11197 11426 ft 319 kts 94°
2026-05-05 07:53 43.29618 1.14177 11022 ft 307 kts 94°
2026-05-05 07:53 43.29507 1.17093 10627 ft 305 kts 91°
2026-05-05 07:53 43.29658 1.19036 10443 ft 300 kts 74°
2026-05-05 07:53 43.30539 1.21604 10361 ft 299 kts 52°
2026-05-05 07:54 43.32056 1.23528 9966 ft 300 kts 28°
2026-05-05 07:54 43.33975 1.24438 9600 ft 294 kts
2026-05-05 07:54 43.35974 1.24997 9026 ft 292 kts 21°
2026-05-05 07:54 43.37573 1.26690 8574 ft 295 kts 52°
2026-05-05 07:55 43.38465 1.29212 8189 ft 294 kts 75°
2026-05-05 07:55 43.38710 1.31993 7804 ft 293 kts 86°
2026-05-05 07:55 43.38838 1.34780 7403 ft 291 kts 85°
2026-05-05 07:55 43.38981 1.37548 7013 ft 290 kts 85°
2026-05-05 07:56 43.39130 1.40307 6618 ft 288 kts 85°
2026-05-05 07:56 43.39281 1.43041 6228 ft 286 kts 85°
2026-05-05 07:56 43.39642 1.45697 5841 ft 281 kts 68°
2026-05-05 07:56 43.40615 1.47987 5464 ft 276 kts 47°
2026-05-05 07:57 43.42041 1.49632 5096 ft 261 kts 31°
2026-05-05 07:57 43.43527 1.50944 4764 ft 248 kts 31°
2026-05-05 07:57 43.44949 1.52194 4421 ft 236 kts 28°
2026-05-05 07:57 43.46458 1.52814 4111 ft 224 kts 356°
2026-05-05 07:58 43.47903 1.52214 3837 ft 216 kts 325°
2026-05-05 07:58 43.49105 1.50971 3524 ft 215 kts 321°
2026-05-05 07:58 43.50291 1.49719 3260 ft 214 kts 321°
2026-05-05 07:58 43.51477 1.48483 2988 ft 213 kts 321°
2026-05-05 07:59 43.52666 1.47254 2711 ft 214 kts 321°
2026-05-05 07:59 43.53844 1.46032 2415 ft 209 kts 322°
2026-05-05 07:59 43.54987 1.44854 2112 ft 201 kts 322°
2026-05-05 07:59 43.56049 1.43753 1926 ft 184 kts 322°
2026-05-05 08:00 43.57046 1.42714 1708 ft 168 kts 321°
2026-05-05 08:00 43.57917 1.41813 1475 ft 150 kts 321°
2026-05-05 08:00 43.58730 1.40975 1185 ft 145 kts 321°
2026-05-05 08:00 43.59518 1.40157 953 ft 140 kts 322°
2026-05-05 08:01 43.60290 1.39365 807 ft 137 kts 321°
2026-05-05 08:01 43.61055 1.38568 685 ft 137 kts 322°
2026-05-05 08:01 43.61816 1.37768 507 ft 137 kts 322°
2026-05-05 08:01 43.62497 1.37052 490 ft 108 kts 322°
2026-05-05 08:02 43.62839 1.36693 487 ft 31 kts 325°
2026-05-05 08:02 43.62972 1.36633 495 ft 15 kts
2026-05-05 08:02 43.63047 1.36701 489 ft 13 kts 53°
2026-05-05 08:02 43.63100 1.36793 493 ft 12 kts 51°
2026-05-05 08:03 43.63104 1.36880 486 ft 9 kts 129°
2026-05-05 08:03 43.63065 1.36948 492 ft 11 kts 123°
2026-05-05 08:03 43.63026 1.37076 492 ft 16 kts 102°
2026-05-05 08:03 43.62989 1.37200 486 ft 13 kts 85°
2026-05-05 08:04 43.62988 1.37262 490 ft 0 kts 115°
2026-05-05 08:04 43.62986 1.37269 495 ft 0 kts 115°